Regional Weather Roundup
Issued by NWS Sterling, VA

Home | Current Version | Previous Version | Graphics & Text | Print | Product List | Glossary On
Versions: 1 2 3 4 5 6 7 8 9 10 11 12 13 14 15 16 17 18 19 20 21 22 23 24 25 26 27 28 29 30 31 32 33 34 35 36 37 38 39 40 41 42 43 44 45 46 47 48 49 50
000
ASUS41 KLWX 022310
RWRLWX

REGIONAL WEATHER ROUNDUP
NATIONAL WEATHER SERVICE BALTIMORE MD/WASHINGTON DC
700 PM EDT SAT MAY 02 2015

Note: "FAIR" indicates few or no clouds below 12,000 feet
with no significant weather and/or obstructions to visibility.
 TC=TEMPERATURE CELSIUS

 * =Non NWS site. Station does not report precipitation (e.g. rain,
    snow, etc.), thunder, or fog.

DCZ001-MDZ009-015-VAZ040>042-051-053>054-030000-
WASHINGTON METRO

CITY           SKY/WX    TMP DP  RH WIND       PRES   REMARKS
WASHINGTON NAT MOSUNNY   74  42  31 NW8       29.98S
DULLES         MOSUNNY   71  41  33 W5        29.98S
ANDREWS AFB    MOSUNNY   70  45  41 SE3       29.97S
FT BELVOIR     MOSUNNY   73  41  31 W6        29.98S
QUANTICO       MOSUNNY   71  41  33 NW5       29.99S
COLLEGE PARK*  MOSUNNY   73  37  27 W6        29.97S
LEESBURG*      SUNNY     72  45  37 CALM      29.99S
GAITHERSBURG*  PTSUNNY   70  45  40 W3        30.02R

$$

MDZ006>007-011-014-030000-
BALTIMORE METRO

CITY           SKY/WX    TMP DP  RH WIND       PRES   REMARKS
BWI AIRPORT    MOSUNNY   72  40  31 NW7       29.95S
MD SCIENCE CTR   N/A     73  38  27 MISG      29.96S
MARTIN STATE   PTSUNNY   68  50  52 S7        29.97S
ANNAPOLIS      SUNNY     67  45  45 S6        29.97R
FORT MEADE*    MOSUNNY   70  39  32 W6        29.99R

$$

MDZ012-015-019>023-030000-
MARYLAND EASTERN SHORE

CITY           SKY/WX    TMP DP  RH WIND       PRES   REMARKS
OCEAN CITY     CLEAR     52  45  77 S3        30.02R
SALISBURY      CLEAR     63  46  54 SE8       29.99R
BAY BRIDGE AP*   N/A    N/A N/A N/A S5        29.97S
CAMBRIDGE*     CLEAR     72  45  37 CALM      29.97S
EASTON*        PTCLDY    72  46  40 CALM      30.01R

$$

MDZ017>025-030000-
SOUTHERN MARYLAND

CITY           SKY/WX    TMP DP  RH WIND       PRES   REMARKS
PATUXENT RIVER SUNNY     68  48  48 CALM      29.99S
ST INIGOES     SUNNY     67  47  48 S5        29.99S
LEONARDTOWN*   SUNNY     68  43  40 S3        30.00S

$$

MDZ003>005-030000-
NORTH CENTRAL MARYLAND

CITY           SKY/WX    TMP DP  RH WIND       PRES   REMARKS
FREDERICK*     SUNNY     73  39  29 CALM      29.99F
HAGERSTOWN APT CLOUDY    73  36  25 W6        29.97S
WESTMINSTER*   MOSUNNY   72  37  28 W6        29.97S

$$

MDZ501>502-030000-
WESTERN MARYLAND

CITY           SKY/WX    TMP DP  RH WIND       PRES   REMARKS
OAKLAND*       PTSUNNY   61  36  39 W7        30.06S
CUMBERLAND*    MOSUNNY   72  34  25 NW7       30.02F

$$

VAZ025>031-030000-
SHENANDOAH VALLEY

CITY           SKY/WX    TMP DP  RH WIND       PRES   REMARKS
WINCHESTER*    MOSUNNY   70  34  26 CALM      29.99S
FRONT ROYAL*   FAIR      70  37  30 CALM      29.98F
LURAY*         FAIR      70  45  40 S3        30.00S
NEW MARKET*    MOCLDY    68  42  39 CALM      29.99S
STAUNTON*      MOSUNNY   67  39  36 S3        30.04F
WAYNESBORO*    MOCLDY    66  39  37 CALM      30.03F

$$

WVZ021-048>050-054>055-030000-
EASTERN WEST VIRGINIA PANHANDLE

CITY           SKY/WX    TMP DP  RH WIND       PRES   REMARKS
MARTINSBURG    PTSUNNY   73  37  27 W5        29.98S
PETERSBURG*    MOSUNNY   71  32  23 NW7       30.02S

$$

VAZ036>039-050-030000-
CENTRAL FOOTHILLS

CITY           SKY/WX    TMP DP  RH WIND       PRES   REMARKS
CHARLOTTESVILL MOSUNNY   71  39  31 CALM      30.01S
CULPEPER*      NOT AVBL
ORANGE*        MOSUNNY   72  41  33 CALM      30.02S
GORDONSVILLE*  FAIR      70  44  39 CALM      30.01R
WARRENTON*     FAIR      72  45  38 NW3       29.99S

$$

VAZ055>057-030000-
NORTH AND CENTRAL PIEDMONT

CITY           SKY/WX    TMP DP  RH WIND       PRES   REMARKS
FREDERICKSBRG* PTSUNNY   74  43  33 NW3       29.99R
STAFFORD*      CLOUDY    72  37  28 NW7       30.03R

$$

NCZ024-NYZ072-PAZ021-071-VAZ022-071-030000-
OTHER REGIONAL OBSERVATIONS

CITY           SKY/WX    TMP DP  RH WIND       PRES   REMARKS
NEW YORK CITY  CLEAR     54  39  57 S9G18     30.00R
PHILADELPHIA   PTCLDY    69  46  43 S12       29.95R
PITTSBURGH     MOSUNNY   71  37  28 W7        30.01S
ROANOKE        PTSUNNY   68  39  34 E3        30.06S
RICHMOND       MOSUNNY   71  43  36 N7        30.01R
RALEIGH        PTSUNNY   68  50  52 CALM      30.04S

$$

ANZ530>537-030000-
MARINE OBSERVATIONS

STATION/POSITION TIME  TEMP    WIND        PRES
                       AIR SEA DIR/SP/G
                 (UTC) (F)     (DEG/KT/KT) (MB)
THOMAS PT LIGHT  2300   62 60  200/ 10/ 10 1015.6S
BALT KEY BRIDGE  2200   69     140/  7/  8 1014.2F
COVE POINT       2200   67      50/  1/  2 1015.8F
LEWISETTA        2200   65 61              1015.5R
SOLOMONS ISLAND  2200      62                N/A
PINEY POINT      2218          190/  6/  7   N/A

$$



USA.gov is the U.S. government's official web portal to all federal, state and local government web resources and services.